Погода в Ононске

Россия / Забайкальский край     50°59′04″N   115°34′19″E
темп.,
°C
ветер,
м/с
пор.,
м/с
влажн.,
%
обл.,
%
осадки,
мм/ч
давл.,
гПа
погр.,
м
7 мая, пт
пт700:00+6зсз5114869 0.0 1005409
03:00+4зсз51053100 0.0 1003377
06:00+3зсз3650100 0.0 1002308
09:00+5сз4441100 0.0 1001648
12:00+7с5440100 0.0 9991847
15:00+5ссз5764100 0.6 10001079
18:00+6св51080100 2.6 1001592
21:00+5сз228095 2.8 100316
8 мая, сб
сб800:00+4с46584 0.0 1006107
03:00+3с33690 0.0 100833
06:00+1ссз33763 0.0 100929
09:00+7с46485 0.0 1009753
12:00+11с683499 0.3 10072618
15:00+12ссв4630100 0.3 10052374
18:00+12ссв562969 0.0 10042372
21:00+8св35448 0.0 1006102
9 мая, вс
вс900:00+7всв114998 0.0 100710
03:00+6ссв115197 0.0 100610
06:00+6с2253100 0.0 100737
09:00+8ссв344775 0.0 1008565
12:00+10с454677 0.0 10081689
15:00+12с343385 0.0 10062023
18:00+13сз232893 0.0 10062391
21:00+9з125296 0.1 100879
10 мая, пн
пн1000:00+7ссз115628 0.0 101010
03:00+5ссв11595 0.0 101010
06:00+4св226414 0.0 101111
09:00+9в34445 0.0 1010478
12:00+13вюв442969 0.0 10091963
15:00+15вюв4424100 0.0 10062465
18:00+15вюв3424100 0.0 10052668
21:00+12всв61033100 0.0 1004326
11 мая, вт
вт1100:00+10вюв101641100 0.0 1005865
03:00+7вюв81375100 2.6 10051012
06:00+7ссв2461100 0.1 1005182
09:00+8св7951100 0.1 1005768
12:00+11св7843100 0.1 10051835
15:00+12св7842100 0.2 10052115
18:00+13св663874 0.0 10051883
21:00+10ссв2249100 0.0 100714